Regional Weather Roundup
Issued by NWS

Home | Current Version | Previous Version | Text Only | Print | Product List | Glossary Off
Versions: 1 2 3 4 5 6 7 8 9 10 11 12 13 14 15 16 17 18 19 20 21 22 23 24 25 26 27 28 29 30 31 32 33 34 35 36 37 38 39 40 41 42 43 44 45 46 47 48 49 50

089
ASUS45 KPSR 210110
RWRAZ

ARIZONA HOURLY REGIONAL WEATHER ROUNDUP
NATIONAL WEATHER SERVICE PHOENIX AZ
600 PM MST THU JUL 20 2017

NOTE: FAIR INDICATES FEW OR NO CLOUDS BELOW 12,000 FEET WITH NO
SIGNIFICANT WEATHER AND/OR OBSTRUCTIONS TO VISIBILITY.

AZZ001>003-036-210200-
NORTHWEST ARIZONA

CITY           SKY/WX    TMP DP  RH WIND       PRES   REMARKS
BULLHEAD CITY  MOSUNNY  108  52  15 S8        29.75F HX 105
KINGMAN        CLOUDY    90  60  36 E15       30.00F
$$

AZZ004>008-015-016-018-210200-
NORTH CENTRAL ARIZONA

CITY           SKY/WX    TMP DP  RH WIND       PRES   REMARKS
GRAND CANYON   CLOUDY    68  57  68 SW5       30.27F
WILLIAMS       CLOUDY    66  55  68 VRB6      30.28S
PRESCOTT       CLOUDY    74  58  57 CALM      30.17F
FLAGSTAFF      CLOUDY    65  55  70 W5        30.30S
PAYSON         PTSUNNY   77  59  53 NW8       30.19R
PAGE           PTSUNNY   91  51  25 S8        30.01F
$$

AZZ009>014-017-210200-
NORTHEAST ARIZONA

CITY           SKY/WX    TMP DP  RH WIND       PRES   REMARKS
WINSLOW        PTSUNNY   78  58  49 NE23G33   30.14R
SAINT JOHNS    CLOUDY    82  52  35 CALM      30.15S
WINDOW ROCK    CLOUDY    72  53  51 SW6       30.26R
SHOW LOW       MOSUNNY   73  52  46 S12       30.24R
$$

AZZ540-542>544-546-548-210200-
GREATER PHOENIX AREA

CITY           SKY/WX    TMP DP  RH WIND       PRES   REMARKS
PHOENIX        MOSUNNY  101  61  26 W8G21     29.80F HX 102
BUCKEYE        MOSUNNY  102  57  22 SW6       29.81S HX 101
GLENDALE       MOSUNNY  102  61  25 S6        29.82F HX 103
LUKE AFB       MOSUNNY  101  61  26 CALM      29.80S HX 102
DEER VALLEY    MOSUNNY   99  62  29 W7        29.83S HX 100
SCOTTSDALE     MOSUNNY  100  59  25 W6        29.84F HX 100
MESA-FALCON    MOSUNNY  100  63  28 W9        29.84  HX 102
MESA-GATEWAY   MOSUNNY  100  61  27 NW10G16   29.85S HX 101
CHANDLER       SUNNY    102  59  24 W9        29.82F HX 102
$$

AZZ539-553-210200-
SOUTHWEST MARICOPA COUNTY AND PINAL COUNTY

CITY           SKY/WX    TMP DP  RH WIND       PRES   REMARKS
CASA GRANDE    MOSUNNY  100  63  29 NW7       29.85F HX 102
GILA BEND      MOSUNNY  102  59  23 W5        29.79F HX 102
$$

AZZ503-504-507>509-210200-
SOUTHEAST ARIZONA

CITY           SKY/WX    TMP DP  RH WIND       PRES   REMARKS
TUCSON         CLOUDY    88  66  48 W10       29.99R
DAVIS-MONTHAN  CLOUDY    88  64  45 N13G20    30.00R
RYAN FIELD     SUNNY     82  66  57 SW18      29.98R
NOGALES        CLOUDY    72  68  87 S8        30.11S
SIERRA VISTA   TSTM      72  64  78 SE10      30.16S
DOUGLAS        CLOUDY    79  63  57 S12       30.10F
SAFFORD        MOSUNNY   88  61  40 S18G24    29.98S
$$

AZZ532-210200-
SOUTHWEST ARIZONA

CITY           SKY/WX    TMP DP  RH WIND       PRES   REMARKS
YUMA           SUNNY    104  55  19 S14       29.77S HX 102
$$

CAZ041-043-047-048-061-525>527-560>570-210200-
SOUTHERN CALIFORNIA

CITY           SKY/WX    TMP DP  RH WIND       PRES   REMARKS
DOWNTOWN L.A.  SUNNY     79  61  53 MISG      29.91S
L.A. AIRPORT   MOSUNNY   74  63  68 W15       29.92F
SAN DIEGO      MOSUNNY   74  65  73 SW9       29.96S
BURBANK        SUNNY     86  53  32 S12       29.91F
ONTARIO        SUNNY     87  55  33 SW17      29.91S
RIVERSIDE      SUNNY     89  56  32 MISG      29.90S
PALM SPRINGS   SUNNY    107  54  17 VRB7      29.77F HX 105
EL CENTRO NAS  SUNNY    107  54  17 SE7       29.74F HX 105
IMPERIAL       PTSUNNY  107  61  22 SE15      29.72F HX 109
BLYTHE         PTSUNNY  106  64  25 S15       29.75F HX 109
NEEDLES        MOSUNNY  108  53  16 SW7       29.77F HX 106
$$

NVZ020-UTZ003-210200-
SOUTHERN NEVADA-UTAH

CITY           SKY/WX    TMP DP  RH WIND       PRES   REMARKS
LAS VEGAS      PTSUNNY   99  52  20 S7        29.86F
SALT LAKE CITY PTSUNNY   93  52  24 S16       29.95F
$$

NMZ009-TXZ055-210200-
NEW MEXICO-WEST TEXAS

CITY           SKY/WX    TMP DP  RH WIND       PRES   REMARKS
ALBUQUERQUE    CLOUDY    84  46  26 E8        30.15S
EL PASO        PTSUNNY   86  61  42 E20G29    30.08R THUNDER
$$


........................KEY........................
SKY/WX - SKY CONDITION/WEATHER
TMP    - TEMPERATURE IN FAHRENHEIT
DP     - DEW POINT IN FAHRENHEIT
RH     - RELATIVE HUMIDITY IN PERCENT
WIND   - DIRECTION AND SPEED IN MILES PER HOUR (MPH)
VRB    - VARIABLE WIND DIRECTION
PRES   - MEAN SEA LEVEL PRESSURE IN INCHES OF MERCURY
         F - FALLING PRESSURE   R - RISING PRESSURE
         S - STEADY PRESSURE
VSB    - VISIBILITY IN MILES
HX     - HEAT INDEX IN FAHRENHEIT
WCI    - WIND CHILL INDEX IN FAHRENHEIT
TC     - TEMPERATURE IN CELSIUS WHICH IS ALSO KNOWN AS
         TEMPERATURE IN CENTIGRADE
AFB    - AIR FORCE BASE
         LUKE AFB IS LUKE AIR FORCE BASE
         DAVIS-MONTHAN IS DAVIS-MONTHAN AIR FORCE BASE
NAS    - NAVAL AIR STATION
         EL CENTRO NAS IS EL CENTRO NAVAL AIR STATION
N/A    - NOT AVAILABLE





USA.gov is the U.S. government's official web portal to all federal, state and local government web resources and services.